Regional Weather Roundup
Issued by NWS Newport/Morehead, NC

Current Version | Previous Version | Text Only | Print | Product List | Glossary Off
Versions: 1 2 3 4 5 6 7 8 9 10 11 12 13 14 15 16 17 18 19 20 21 22 23 24 25 26 27 28 29 30 31 32 33 34 35 36 37 38 39 40 41 42 43 44 45 46 47 48 49 50
883 ASUS42 KMHX 261524 RWRMHX WEATHER ROUNDUP FOR EASTERN NORTH CAROLINA NATIONAL WEATHER SERVICE NEWPORT/MOREHEAD CITY NC 1100 AM EDT WED JUL 26 2017 NOTE: "FAIR" INDICATES FEW OR NO CLOUDS BELOW 12,000 FEET WITH NO SIGNIFICANT WEATHER AND/OR OBSTRUCTIONS TO VISIBILITY NCZ015>017-031-032-045>047-102-103-261600- NORTH COAST CITY SKY/WX TMP DP RH WIND PRES REMARKS EDENTON PTSUNNY 82 70 67 E7 30.20R ELIZABETH CITY MOSUNNY 81 69 67 E9 30.20R KITTY HAWK SUNNY 79 66 63 CALM 30.19R MANTEO SUNNY 78 67 69 E13 30.19S $$ NCZ045>047-081-094-103-104-261600- CENTRAL COAST CITY SKY/WX TMP DP RH WIND PRES REMARKS FRISCO CLOUDY 81 67 62 NE8G18 30.16S $$ NCZ095-097-098-100-101-261600- SOUTHERN COAST CITY SKY/WX TMP DP RH WIND PRES REMARKS BEAUFORT CLOUDY 83 74 74 E10 30.15R CEDAR ISLAND NOT AVBL JACKSONVILLE PTSUNNY 81 74 79 E8 30.15S PINEY ISLAND CLOUDY N/A N/A N/A NE12 30.16R WILMINGTON CLOUDY 81 70 69 NE12 30.13F $$ NCZ011>013-027>030-043-044-078>080-089-090>093-098-261600- COASTAL PLAIN CITY SKY/WX TMP DP RH WIND PRES REMARKS AHOSKIE N/A 79 66 64 NE5 30.20S CLINTON PTSUNNY 82 70 66 NE6 30.17S ELIZABETHTOWN NOT AVBL GOLDSBORO PTSUNNY 82 68 61 E9 30.17S GREENVILLE MOSUNNY 82 68 61 SE9 30.19S HAVELOCK CLOUDY 83 69 62 NE10 30.17R KENANSVILLE CLOUDY 81 68 65 NE3 30.18R KINSTON PTSUNNY 82 66 57 E7 30.19R NEW BERN CLOUDY 82 72 71 NE9 30.17S RICHLANDS PTSUNNY 79 73 82 NE9 30.17S ROCKY MOUNT MOSUNNY 81 70 69 E6 30.20S WASHINGTON SUNNY 82 68 62 E7 30.19R WHITEVILLE PTSUNNY 82 73 73 NE8 30.13S $$ AMZ130-135-150-152-154-156-158-170-250-252-270-ANZ085-086-088-633-658-670-261600- MARINE OBSERVATIONS STATION/POSITION TIME TEMP WIND PRES WAVE SWELL AIR SEA DIR/SP/G HT/PER HT/PER (UTC) (F) (DEG/KT/KT) (MB) (FT/S) (FT/S) CHESAPEAKE LIGHT NOT AVBL 64 E VA BEACH 1450 75 78 50/ 12/ 14 1022.8 3/ 6 2/ 6 DUCK 1500 76 75 60/ 8/ 10 1022.2 2 E DUCK 1500 74 N/A 4/ 6 OREGON INLET 1500 78 72 60/ 10/ 15 1021.9 13E OREGON INLT 1448 77 N/A 4/ 6 3/ 6 HATTERAS CG 1500 79 77 50/ 10/ 15 1021.4 DIAMOND BUOY 1450 81 83 50/ 12/ 14 1020.6 3/ 5 2/ 7 CAPE LOOKOUT 1500 79 40/ 15/ 18 1020.7 BEAUFORT LAB 1500 81 79 70/ 8/ 15 1020.4 30 SE NEW RVR IN 1508 81 84 60/ 16/ 19 1020.1 30 SE NEW RVR IN 1513 84 N/A 4/ 4 27 SE WRIGHTSVLE 1508 80 82 100/ 14/ 19 1019.6 5 SE WRIGHTSVLE NOT AVBL 225 S CAPE HAT 1450 83 83 230/ 12/ 14 1019.4 3/ 9 2/ 9 41 SE CHARLESTON 1510 80 83 200/ 10/ 12 1018.6 $$

USA.gov is the U.S. government's official web portal to all federal, state and local government web resources and services.